Wetbulb
66.36 63.98 60.57 57.50 50.01 47.16 42.88 45.75 48.95 49.47 49.64 52.47 54.81 53.84 52.62 53.45 54.84 51.67 63.80 67.97 68.82 69.32 70.49 70.89 71.48 71.79 70.78 69.85 69.61 69.16 70.31 69.91 70.18 69.75 69.04 68.38 67.38 66.98 66.28 66.18 66.94 65.83 66.94 67.16 67.46 67.79 68.32 67.07 66.53
64.86 63.99 57.91 53.96 47.27 41.80 42.22 46.63 48.48 49.95 52.62 54.07 55.01 53.49 52.34 51.72 60.60 61.91 62.45 68.26 69.24 69.38 70.15 70.16 70.45 71.28 70.56 69.33 68.87 69.09 70.07 70.02 69.01 68.80 68.20 67.81 66.94 66.21 65.88 65.40 67.22 66.53 66.60 66.74 66.92 66.87 67.98 67.73 66.40
64.06 63.21 53.10 50.18 45.99 42.73 43.14 47.32 49.39 51.91 54.24 53.73 52.37 54.79 53.81 54.70 60.54 62.38 65.05 68.54 69.21 68.65 69.56 69.56 69.98 70.85 70.00 69.01 68.48 69.01 69.60 69.52 68.08 68.79 68.25 67.40 66.89 66.04 65.61 65.12 64.79 65.35 65.42 65.11 65.88 66.13 66.69 67.62 66.02
59.35 57.01 53.85 47.49 45.44 47.35 47.97 49.36 51.68 52.06 53.23 55.21 54.61 53.84 57.52 59.92 60.89 64.43 66.62 68.15 68.68 68.81 69.63 69.30 70.34 70.65 69.38 68.62 68.40 68.10 68.10 68.23 68.06 69.15 68.34 67.26 67.02 66.29 67.12 65.99 64.43 64.33 63.98 64.27 64.58 65.20 65.24 66.77 65.83
57.85 54.04 47.71 45.54 46.51 48.77 50.01 52.16 52.46 51.54 51.54 52.70 55.27 53.28 55.55 60.82 64.68 65.59 65.83 68.30 68.23 67.75 68.88 68.98 69.51 69.93 69.50 68.31 68.02 67.77 67.70 67.24 67.64 69.24 68.36 67.73 67.39 66.94 67.13 66.65 64.83 63.81 63.38 62.84 63.54 64.27 63.97 64.70 65.78
53.33 51.89 45.19 42.47 45.91 50.04 51.20 52.98 52.18 51.89 52.64 53.31 54.16 54.48 55.78 61.62 63.30 64.46 65.62 66.91 68.16 67.46 68.34 68.46 66.99 67.82 68.30 68.27 68.45 68.49 68.07 68.18 67.95 68.22 68.35 68.38 67.95 67.51 66.97 66.03 65.10 64.23 63.61 63.52 63.56 63.18 63.05 63.38 63.56
50.60 48.26 46.67 46.67 46.34 48.05 51.29 54.22 51.25 50.84 51.71 52.80 55.24 52.53 56.56 60.14 63.11 64.68 64.71 65.62 67.19 67.82 68.20 68.10 67.61 66.89 65.59 66.51 66.49 67.01 67.77 67.63 67.54 67.57 67.37 68.12 68.23 67.95 67.37 66.95 66.65 64.72 64.15 64.12 63.97 63.26 62.42 62.43 62.98
51.53 49.24 45.73 45.53 46.64 46.19 51.79 52.11 52.80 53.74 51.72 56.24 56.40 52.49 53.46 59.86 63.81 64.25 64.36 64.62 65.53 66.15 67.25 67.03 66.67 66.41 65.96 65.61 64.37 64.82 65.54 66.08 66.20 65.60 64.74 64.95 66.04 66.18 66.07 64.91 66.01 66.15 65.36 65.34 64.81 64.32 63.16 62.21 62.26
52.26 46.18 43.70 45.83 47.51 47.25 51.64 50.16 53.28 54.37 54.03 55.52 56.85 56.60 59.31 62.79 63.63 62.38 61.85 63.23 63.85 64.87 65.10 65.90 65.77 65.75 65.39 64.95 64.14 62.95 63.68 63.80 63.78 63.18 62.46 62.05 64.36 64.55 63.91 62.96 64.29 66.05 66.18 66.57 66.19 65.70 64.63 63.34 62.28
47.89 43.33 46.70 48.99 47.32 48.71 50.93 50.92 51.70 51.52 52.09 52.89 55.53 58.93 61.31 62.42 61.52 60.87 60.59 61.01 61.86 62.26 63.63 64.80 64.76 64.99 64.99 66.13 64.73 63.12 63.80 62.97 62.61 62.48 61.41 61.54 61.63 63.86 64.35 61.06 61.46 63.47 64.08 65.68 66.46 66.11 64.42 61.80 59.50
47.44 43.46 49.13 49.29 51.56 50.88 50.54 49.73 50.95 48.91 48.38 52.57 54.43 56.91 59.79 60.35 60.52 60.71 60.61 60.96 62.02 63.06 63.81 64.57 64.75 64.88 64.09 63.78 62.90 62.81 62.33 61.93 62.03 61.88 61.19 61.39 61.16 59.77 62.77 60.60 60.24 59.36 59.13 60.06 61.65 62.45 62.39 60.69 59.46
45.06 48.71 49.54 51.49 50.96 50.60 49.06 50.48 48.62 49.10 49.41 53.91 56.27 57.37 58.21 59.15 59.59 59.94 60.26 60.48 60.94 62.32 64.05 64.72 64.98 64.52 64.65 64.05 63.05 62.92 62.61 61.68 61.24 61.93 61.78 60.90 59.96 58.82 58.72 58.74 58.78 58.47 58.81 57.97 58.14 58.73 60.57 60.38 59.97
47.21 48.55 50.65 51.13 50.78 49.01 51.23 48.28 48.12 48.32 50.99 53.00 53.93 54.34 54.03 54.52 56.19 57.78 58.62 59.32 60.69 60.94 62.51 64.15 64.80 64.68 64.65 64.13 64.26 63.13 62.91 62.48 62.32 62.14 62.41 62.26 60.62 59.76 59.28 59.02 58.87 58.79 59.10 58.64 58.11 58.31 59.73 60.10 60.10
48.87 49.43 49.31 50.38 50.30 50.03 48.84 47.79 48.75 50.32 53.07 52.23 52.32 51.92 52.33 52.90 54.69 54.67 56.49 57.63 59.01 60.41 60.64 62.26 64.38 64.99 64.77 64.11 63.78 64.40 63.34 62.79 62.81 62.39 62.72 62.50 61.83 60.52 60.00 59.19 58.93 58.51 58.61 59.13 58.47 58.23 58.53 58.79 58.94
49.71 45.43 47.45 47.23 49.29 48.48 49.76 45.97 47.01 50.51 51.29 51.44 51.07 51.27 52.39 52.74 53.70 53.70 54.65 55.45 57.69 59.18 60.52 60.42 61.19 64.67 64.46 64.28 63.84 64.00 64.61 64.61 62.72 63.26 62.93 62.96 62.75 61.22 60.64 59.80 59.37 59.05 58.66 58.19 57.73 57.47 57.28 56.87 57.41
45.81 43.91 39.01 45.87 48.65 48.98 48.56 39.45 47.85 50.86 49.34 49.17 49.94 49.40 50.49 52.02 53.16 53.84 54.97 55.03 55.35 54.83 55.26 55.70 57.41 58.73 61.73 63.49 63.96 64.16 63.83 64.05 64.05 63.38 63.64 63.37 62.89 62.44 61.60 60.29 59.64 59.93 59.18 58.38 57.59 57.23 56.70 56.15 55.83
41.98 36.41 38.81 41.92 47.44 47.53 46.01 40.77 47.40 49.01 47.47 47.05 47.97 48.92 49.91 50.01 51.23 52.95 54.17 53.23 51.96 52.24 52.19 52.40 53.31 53.68 54.73 57.52 61.81 63.83 64.01 63.71 63.55 63.73 63.64 64.44 64.80 64.30 63.63 63.01 62.52 61.89 61.40 60.76 60.23 59.04 57.66 56.23 55.94
37.27 38.42 39.57 38.25 42.49 43.97 43.83 42.64 46.19 48.72 46.70 46.60 46.87 47.40 48.00 49.02 50.35 52.09 51.02 51.19 50.51 50.24 50.76 51.41 52.53 52.71 53.06 53.21 56.19 60.08 62.85 63.35 63.37 63.01 63.49 63.86 64.85 64.69 63.73 63.33 62.67 62.59 61.64 60.96 60.59 60.13 59.74 58.97 58.21
40.78 38.07 37.28 39.10 44.39 43.46 41.78 41.82 43.98 46.00 44.71 44.20 45.56 46.63 48.38 49.33 50.63 49.80 49.65 48.95 49.14 49.31 49.88 50.51 51.00 52.27 53.08 51.56 52.13 57.07 58.49 60.52 62.15 63.39 64.04 64.53 64.28 64.44 63.90 63.61 63.28 62.97 62.16 61.60 61.07 60.29 59.44 59.40 59.89
42.35 39.54 37.65 41.20 43.66 42.07 40.76 40.34 43.09 44.27 44.67 45.03 44.29 45.34 46.25 46.11 47.98 47.71 47.53 46.96 47.04 47.30 48.27 49.58 51.33 52.08 53.97 53.45 52.49 55.47 58.52 60.23 61.43 62.84 63.90 64.04 63.90 64.01 63.72 63.44 63.19 62.88 62.42 61.49 61.01 60.56 59.78 59.68 60.04
39.86 39.19 37.99 38.22 41.43 41.00 39.57 37.47 40.91 44.69 46.55 47.67 48.23 47.30 46.43 47.18 47.74 45.49 45.38 44.63 44.72 45.45 46.27 48.60 49.17 49.09 50.15 51.43 55.22 55.39 57.69 58.88 60.48 62.70 62.62 63.09 63.38 63.35 63.12 63.13 63.08 62.74 62.31 61.56 61.28 60.83 59.98 58.93 58.83
35.23 40.99 41.15 39.76 36.46 31.08 38.23 28.36 35.38 39.60 41.45 43.71 46.64 47.98 46.77 47.43 46.78 45.67 44.19 42.92 43.32 43.69 44.87 46.14 46.61 46.29 47.84 49.31 51.31 54.30 55.71 56.25 58.47 59.78 55.69 52.51 52.92 53.13 54.36 55.86 59.05 61.56 61.87 61.20 61.04 60.93 60.15 59.30 57.78
37.92 42.58 41.33 40.14 36.18 34.38 34.87 31.21 33.41 38.43 36.92 39.52 43.46 44.80 47.13 45.90 44.93 43.39 42.66 43.25 42.72 42.78 42.18 42.92 43.85 43.79 44.31 46.19 47.63 49.60 52.02 53.05 53.26 53.53 50.97 50.01 48.13 47.45 48.70 50.14 51.27 52.22 53.49 53.19 53.32 57.66 59.26 59.50 58.69
44.73 42.17 40.82 39.29 38.77 31.00 33.96 32.78 30.62 36.26 39.31 39.03 41.40 42.38 43.38 42.77 42.22 42.00 42.17 41.94 40.62 40.38 40.39 40.39 40.65 40.88 41.68 41.41 43.11 43.85 45.22 46.90 46.30 45.94 46.00 44.96 44.59 44.04 44.45 46.15 46.44 46.49 46.70 47.12 50.90 52.34 51.28 52.20 51.26
41.62 36.90 25.63 28.50 28.42 25.53 32.59 32.16 35.02 37.39 40.11 40.66 40.95 41.65 41.71 41.99 40.87 40.45 39.44 38.64 38.67 38.50 38.59 39.78 38.31 38.02 38.62 38.04 38.76 41.34 41.45 41.17 41.51 41.47 41.14 40.83 40.56 40.10 40.79 42.62 42.37 42.34 43.08 44.58 46.53 45.97 45.38 44.67 43.70
37.84 37.44 28.82 21.31 23.02 25.08 31.38 27.01 31.79 40.44 43.29 42.79 42.57 41.72 41.54 41.17 40.83 39.35 38.73 38.04 38.00 38.11 37.17 36.74 36.02 36.10 36.70 35.49 35.12 36.62 38.20 38.17 37.74 38.00 37.86 37.22 37.69 37.46 38.46 38.90 38.64 38.47 39.74 40.89 40.07 40.51 41.69 41.34 40.57
36.31 34.25 38.32 30.10 25.32 25.10 28.33 31.11 37.20 40.23 39.41 39.41 40.43 40.43 40.04 40.37 40.00 38.87 38.09 37.47 36.74 35.54 35.46 35.71 34.81 35.26 35.40 34.03 33.47 33.05 33.49 33.45 32.87 33.35 33.93 33.76 34.29 36.54 36.04 36.45 35.82 36.29 36.33 37.36 37.51 37.07 37.88 38.17 38.05
38.46 40.15 32.07 31.19 22.79 14.45 22.80 25.95 29.75 34.16 37.49 38.83 38.86 39.42 39.32 39.76 38.53 37.58 36.07 34.91 34.40 34.46 34.39 34.57 33.55 33.20 33.13 32.36 32.27 31.95 31.63 31.79 31.67 31.72 31.31 31.63 32.34 33.29 33.76 33.84 34.47 33.91 34.10 34.72 35.17 34.78 35.93 35.62 36.25
37.25 35.41 36.31 35.16 30.41 23.67 20.78 23.76 34.05 37.61 38.12 39.67 40.19 40.10 39.83 38.90 37.80 36.37 34.85 33.51 33.21 32.92 32.72 32.94 31.72 31.51 31.62 31.10 30.73 30.43 30.08 29.90 29.95 29.64 29.88 30.36 30.91 31.48 32.12 32.64 32.25 32.26 32.36 33.32 33.76 33.64 34.40 34.69 34.87
40.46 37.30 37.27 30.55 24.54 28.74 27.45 28.12 37.52 38.09 38.01 40.86 40.39 40.46 39.74 38.71 36.68 35.53 33.74 32.21 31.52 31.44 31.16 31.36 30.30 29.98 30.09 29.94 29.26 29.09 28.87 28.44 27.66 27.62 28.02 29.11 29.20 30.33 30.67 31.39 30.87 30.92 31.42 31.86 31.92 32.21 33.00 32.76 32.43
MSLP
1011.35 1010.65 1010.75 1011.09 1012.66 1013.66 1014.19 1014.85 1014.20 1014.24 1014.12 1014.00 1013.99 1014.48 1015.72 1016.14 1016.69 1017.74 1017.59 1017.64 1017.96 1018.53 1018.95 1019.22 1019.41 1019.57 1019.69 1020.01 1020.14 1020.24 1020.25 1020.35 1020.45 1020.56 1020.65 1020.75 1020.85 1020.99 1021.12 1021.27 1021.32 1021.39 1021.48 1021.57 1021.66 1021.76 1021.71 1021.78 1021.92
1011.11 1010.77 1010.91 1011.77 1013.02 1014.15 1014.90 1014.57 1014.46 1014.24 1013.92 1013.91 1014.31 1014.97 1015.50 1016.78 1016.83 1017.41 1017.43 1017.74 1017.91 1018.49 1018.91 1019.25 1019.45 1019.57 1019.70 1020.02 1020.16 1020.29 1020.33 1020.40 1020.52 1020.60 1020.68 1020.79 1020.92 1021.00 1021.16 1021.25 1021.21 1021.24 1021.40 1021.56 1021.74 1021.78 1021.72 1021.74 1021.93
1010.78 1010.93 1012.01 1012.38 1013.26 1014.16 1014.81 1014.54 1014.32 1014.03 1013.72 1013.93 1014.42 1014.84 1015.77 1016.94 1017.18 1017.34 1017.18 1017.77 1017.97 1018.50 1018.90 1019.32 1019.61 1019.77 1019.91 1020.19 1020.30 1020.34 1020.38 1020.49 1020.57 1020.63 1020.70 1020.78 1020.85 1021.03 1021.33 1021.40 1021.54 1021.49 1021.54 1021.59 1021.92 1022.02 1022.02 1021.94 1022.09
1010.97 1011.22 1012.12 1012.73 1013.86 1013.86 1014.05 1014.13 1013.93 1013.97 1013.86 1013.86 1014.63 1015.93 1016.47 1016.81 1016.78 1017.08 1017.20 1017.64 1018.05 1018.61 1018.95 1019.41 1019.72 1019.93 1020.09 1020.29 1020.40 1020.50 1020.55 1020.53 1020.52 1020.53 1020.61 1020.71 1020.79 1020.94 1021.11 1021.32 1021.49 1021.57 1021.70 1021.75 1021.86 1022.13 1022.22 1022.19 1022.22
1010.99 1012.01 1012.93 1013.58 1014.04 1013.93 1013.67 1013.45 1013.61 1013.98 1013.97 1014.40 1014.62 1016.26 1016.85 1017.08 1016.98 1017.15 1017.31 1017.70 1018.16 1018.83 1019.09 1019.52 1019.81 1020.03 1020.20 1020.34 1020.46 1020.58 1020.64 1020.69 1020.67 1020.67 1020.77 1020.85 1020.92 1021.04 1021.11 1021.23 1021.43 1021.65 1021.80 1021.88 1022.02 1022.25 1022.30 1022.29 1022.24
1012.08 1012.75 1013.61 1014.12 1014.05 1013.82 1013.43 1013.12 1013.45 1013.73 1014.00 1014.71 1015.34 1016.09 1017.15 1017.08 1017.25 1017.41 1017.40 1017.91 1017.94 1018.66 1018.97 1019.38 1019.74 1019.92 1020.10 1020.23 1020.34 1020.48 1020.56 1020.65 1020.72 1020.78 1020.82 1020.91 1021.00 1021.12 1021.25 1021.33 1021.40 1021.54 1021.75 1021.92 1022.07 1022.21 1022.29 1022.33 1022.37
1013.22 1013.79 1013.96 1014.04 1014.22 1014.04 1013.55 1013.22 1013.75 1013.95 1014.13 1014.65 1014.89 1016.43 1017.45 1017.39 1017.24 1017.28 1017.48 1017.87 1018.01 1018.22 1018.61 1019.06 1019.37 1019.61 1019.79 1019.97 1020.12 1020.28 1020.42 1020.56 1020.72 1020.85 1020.95 1020.98 1021.04 1021.11 1021.25 1021.37 1021.43 1021.49 1021.64 1021.84 1022.02 1022.16 1022.26 1022.32 1022.34
1013.51 1014.11 1014.11 1014.08 1014.10 1014.14 1013.54 1013.56 1013.83 1013.93 1014.37 1014.37 1014.96 1016.46 1017.48 1017.32 1017.12 1017.20 1017.57 1017.91 1018.26 1018.38 1018.45 1018.85 1019.10 1019.27 1019.46 1019.57 1019.73 1019.93 1020.13 1020.30 1020.50 1020.69 1020.85 1020.93 1020.96 1021.06 1021.20 1021.31 1021.44 1021.51 1021.57 1021.68 1021.85 1021.98 1022.10 1022.18 1022.20
1013.64 1014.33 1014.65 1014.57 1014.19 1014.07 1013.68 1013.83 1013.75 1013.90 1014.37 1014.92 1015.54 1016.19 1016.52 1016.93 1017.17 1017.49 1017.95 1018.38 1018.55 1018.61 1018.64 1018.54 1018.76 1018.98 1019.09 1019.18 1019.19 1019.38 1019.62 1019.85 1020.07 1020.31 1020.58 1020.77 1020.92 1021.01 1021.10 1021.25 1021.36 1021.41 1021.42 1021.42 1021.49 1021.62 1021.77 1021.89 1022.00
1014.29 1014.91 1014.77 1014.53 1014.10 1013.90 1013.93 1013.94 1014.05 1014.38 1014.86 1015.87 1016.29 1016.70 1016.89 1017.07 1017.46 1017.76 1018.05 1018.44 1018.59 1018.70 1018.56 1018.44 1018.44 1018.48 1018.57 1018.55 1018.72 1018.98 1019.13 1019.38 1019.54 1019.70 1019.92 1020.17 1020.34 1020.49 1020.64 1020.80 1020.96 1021.08 1021.17 1021.22 1021.28 1021.33 1021.48 1021.70 1021.85
1014.71 1015.03 1014.87 1014.80 1014.38 1014.10 1013.99 1014.13 1014.18 1014.67 1015.36 1015.62 1016.22 1016.71 1017.06 1017.35 1017.60 1017.85 1017.99 1018.00 1018.05 1018.07 1018.25 1018.18 1018.15 1018.15 1018.20 1018.24 1018.50 1018.75 1018.92 1019.10 1019.25 1019.31 1019.40 1019.54 1019.72 1019.99 1020.21 1020.45 1020.58 1020.79 1020.89 1021.10 1021.14 1021.21 1021.24 1021.40 1021.56
1015.14 1014.91 1014.95 1014.85 1014.76 1014.62 1014.54 1014.39 1014.54 1014.80 1015.33 1015.13 1015.76 1016.06 1016.61 1017.12 1017.32 1017.39 1017.46 1017.48 1017.47 1017.64 1017.61 1017.59 1017.63 1017.90 1018.00 1018.03 1018.24 1018.40 1018.63 1018.77 1018.94 1019.00 1019.07 1019.33 1019.51 1019.63 1019.81 1020.13 1020.21 1020.41 1020.54 1020.76 1020.89 1020.94 1020.90 1020.97 1020.97
1015.36 1015.20 1015.25 1014.98 1015.01 1015.10 1014.98 1015.04 1015.19 1015.17 1015.22 1015.43 1015.67 1015.98 1016.24 1016.52 1016.64 1016.70 1016.69 1016.73 1016.81 1017.00 1016.94 1017.06 1017.13 1017.27 1017.29 1017.61 1017.74 1017.98 1018.13 1018.28 1018.38 1018.50 1018.55 1018.77 1019.02 1019.19 1019.33 1019.56 1019.75 1019.91 1020.05 1020.23 1020.37 1020.47 1020.52 1020.57 1020.53
1015.62 1015.52 1015.59 1015.52 1015.34 1015.41 1015.60 1015.65 1015.68 1015.34 1015.05 1015.45 1015.66 1015.77 1015.95 1016.06 1016.06 1016.15 1016.27 1016.34 1016.35 1016.32 1016.31 1016.30 1016.52 1016.41 1016.61 1016.82 1017.05 1017.22 1017.44 1017.62 1017.74 1017.84 1017.92 1018.10 1018.40 1018.72 1018.97 1019.13 1019.26 1019.39 1019.47 1019.55 1019.77 1019.94 1020.09 1020.12 1020.08
1015.84 1016.02 1016.04 1015.95 1015.84 1015.83 1015.90 1016.25 1015.80 1015.34 1015.32 1015.44 1015.73 1015.66 1015.68 1015.64 1015.68 1015.68 1015.80 1016.05 1015.99 1015.95 1015.73 1015.80 1015.77 1015.69 1016.17 1016.34 1016.42 1016.61 1016.77 1016.99 1017.27 1017.22 1017.29 1017.44 1017.70 1018.06 1018.36 1018.71 1018.82 1018.83 1018.84 1018.99 1019.23 1019.36 1019.47 1019.63 1019.58
1016.49 1016.82 1017.00 1016.39 1016.11 1016.01 1016.27 1016.21 1015.72 1015.24 1015.43 1015.64 1015.64 1015.66 1015.50 1015.38 1015.34 1015.33 1015.25 1015.43 1015.55 1015.59 1015.83 1015.79 1015.81 1015.83 1015.98 1016.02 1016.02 1016.16 1016.26 1016.35 1016.60 1016.88 1016.98 1016.96 1017.16 1017.37 1017.77 1018.13 1018.35 1018.40 1018.45 1018.59 1018.86 1019.10 1019.19 1019.27 1019.42
1017.39 1017.52 1017.51 1017.07 1016.13 1016.13 1016.36 1016.20 1015.70 1015.26 1015.42 1015.68 1015.55 1015.59 1015.50 1015.32 1015.29 1015.09 1015.05 1015.32 1015.76 1015.79 1015.92 1015.97 1015.93 1016.02 1016.01 1015.79 1015.86 1015.81 1015.72 1015.87 1015.93 1016.17 1016.49 1016.54 1016.70 1016.89 1017.02 1017.11 1017.44 1017.85 1017.98 1018.07 1018.31 1018.57 1018.80 1018.98 1019.08
1018.11 1018.14 1017.56 1017.07 1016.33 1016.38 1016.49 1016.16 1015.83 1015.27 1015.33 1015.63 1015.54 1015.54 1015.61 1015.47 1015.38 1015.20 1015.47 1015.78 1016.09 1016.25 1016.30 1016.23 1016.16 1016.17 1016.07 1015.88 1015.61 1015.55 1015.49 1015.43 1015.58 1015.78 1015.91 1016.05 1016.20 1016.59 1016.79 1016.77 1016.87 1017.19 1017.53 1017.66 1017.85 1018.11 1018.32 1018.46 1018.63
1018.08 1018.07 1017.87 1017.41 1016.67 1016.57 1016.36 1016.26 1016.11 1015.77 1015.57 1015.60 1015.81 1015.55 1015.28 1015.04 1014.90 1015.31 1015.87 1016.31 1016.52 1016.64 1016.51 1016.49 1016.39 1016.30 1016.23 1016.04 1015.91 1015.63 1015.33 1015.17 1015.29 1015.25 1015.30 1015.31 1015.58 1016.05 1016.43 1016.65 1016.64 1016.76 1017.16 1017.31 1017.50 1017.75 1018.07 1018.21 1018.24
1018.22 1018.32 1018.12 1017.59 1017.06 1016.95 1016.62 1016.20 1015.73 1015.58 1015.26 1015.15 1015.29 1015.22 1015.15 1015.26 1015.36 1015.93 1016.33 1016.78 1017.07 1017.16 1017.01 1016.84 1016.77 1016.74 1016.59 1016.41 1015.97 1015.44 1015.06 1014.64 1014.50 1014.61 1014.82 1014.89 1015.21 1015.47 1015.93 1016.26 1016.54 1016.68 1016.85 1017.07 1017.22 1017.49 1017.71 1017.79 1017.91
1018.15 1018.20 1018.35 1018.25 1017.58 1017.25 1017.19 1016.18 1015.70 1014.95 1014.38 1014.16 1014.04 1014.22 1014.56 1014.80 1015.19 1016.06 1016.67 1017.20 1017.45 1017.44 1017.38 1017.22 1017.25 1017.14 1016.89 1016.43 1015.79 1014.99 1014.71 1014.66 1014.58 1014.66 1014.91 1015.08 1015.23 1015.44 1015.70 1015.86 1016.02 1016.37 1016.54 1016.69 1016.83 1017.03 1017.22 1017.26 1017.33
1017.77 1017.80 1018.10 1018.44 1018.77 1018.48 1017.89 1016.29 1015.53 1014.81 1014.16 1013.74 1013.24 1013.46 1013.77 1014.18 1014.91 1016.03 1016.82 1017.46 1017.78 1017.59 1017.41 1017.47 1017.57 1017.44 1017.05 1016.52 1015.96 1015.35 1015.03 1015.10 1015.57 1015.64 1016.00 1016.30 1016.22 1016.52 1016.54 1016.46 1016.23 1016.18 1016.41 1016.42 1016.46 1016.59 1016.73 1016.83 1016.94
1017.28 1017.60 1018.15 1018.53 1019.01 1019.19 1018.73 1018.50 1015.11 1014.51 1014.30 1013.69 1013.08 1013.16 1013.36 1013.87 1014.88 1016.07 1016.86 1017.37 1017.60 1017.66 1017.89 1017.93 1017.86 1017.76 1017.45 1016.87 1016.36 1016.01 1015.75 1015.93 1016.25 1016.37 1016.66 1017.17 1017.25 1017.34 1017.30 1017.25 1017.15 1017.06 1017.04 1017.15 1017.12 1016.82 1016.72 1016.74 1016.68
1017.11 1017.67 1018.30 1018.88 1019.49 1019.21 1018.77 1018.79 1014.78 1014.62 1013.80 1013.10 1012.85 1013.13 1013.68 1014.63 1015.49 1016.29 1016.95 1017.35 1017.74 1017.92 1018.18 1018.27 1018.19 1018.18 1017.84 1017.49 1016.98 1016.77 1016.66 1016.77 1017.03 1017.28 1017.52 1017.92 1018.12 1018.14 1018.02 1018.02 1017.84 1017.74 1017.66 1017.68 1017.51 1017.57 1017.71 1017.71 1017.74
1016.76 1017.97 1019.24 1020.06 1020.25 1018.99 1018.32 1018.31 1013.98 1013.65 1012.99 1012.82 1012.93 1013.44 1014.15 1015.01 1015.74 1016.57 1017.22 1017.63 1018.02 1018.27 1018.53 1018.61 1018.67 1018.63 1018.39 1018.08 1017.85 1017.61 1017.58 1017.69 1017.88 1018.08 1018.30 1018.43 1018.62 1018.70 1018.67 1018.43 1018.45 1018.55 1018.43 1018.27 1018.15 1018.34 1018.45 1018.55 1018.57
1016.20 1016.94 1018.08 1019.33 1019.87 1019.28 1018.60 1016.65 1013.76 1012.54 1011.82 1012.31 1012.34 1013.41 1014.43 1015.26 1015.87 1016.59 1017.20 1017.62 1018.07 1018.39 1018.74 1018.99 1019.03 1019.00 1018.85 1018.66 1018.65 1018.57 1018.41 1018.53 1018.84 1019.01 1019.15 1019.22 1019.29 1019.47 1019.32 1019.16 1019.15 1019.23 1019.12 1019.07 1019.16 1019.16 1019.27 1019.54 1019.53
1016.39 1016.50 1017.44 1018.80 1019.89 1019.76 1018.08 1015.73 1013.62 1012.55 1012.26 1012.34 1012.95 1013.81 1014.50 1015.19 1015.84 1016.45 1017.08 1017.64 1018.21 1018.59 1018.88 1019.13 1019.36 1019.46 1019.39 1019.29 1019.21 1019.28 1019.34 1019.41 1019.64 1019.73 1019.77 1019.89 1019.87 1019.89 1019.96 1020.00 1019.94 1019.85 1019.66 1019.61 1019.71 1019.99 1020.05 1020.12 1020.09
1015.75 1016.60 1017.78 1018.42 1019.68 1019.65 1017.35 1015.75 1013.37 1012.56 1012.48 1012.93 1013.54 1013.89 1014.57 1015.19 1015.89 1016.49 1017.10 1017.77 1018.43 1018.61 1018.86 1019.11 1019.42 1019.62 1019.72 1019.64 1019.64 1019.91 1020.06 1020.17 1020.34 1020.48 1020.65 1020.67 1020.68 1020.52 1020.53 1020.51 1020.59 1020.67 1020.54 1020.41 1020.32 1020.30 1020.64 1020.67 1020.69
1015.79 1016.03 1016.66 1017.30 1018.17 1017.77 1016.69 1014.38 1012.01 1011.58 1011.88 1012.35 1012.74 1013.34 1014.16 1014.87 1015.62 1016.41 1017.21 1017.88 1018.33 1018.69 1018.90 1019.24 1019.55 1019.76 1019.93 1019.99 1020.07 1020.23 1020.49 1020.77 1020.91 1021.06 1021.22 1021.30 1021.29 1021.22 1021.09 1020.94 1021.01 1021.30 1021.39 1021.42 1021.49 1021.48 1021.19 1021.38 1021.41
1014.48 1014.58 1015.66 1016.45 1016.75 1016.92 1016.16 1013.32 1011.75 1011.36 1011.50 1011.81 1012.25 1012.91 1013.65 1014.38 1015.35 1016.23 1016.96 1017.64 1018.25 1018.67 1018.88 1019.13 1019.53 1019.81 1019.98 1020.18 1020.53 1020.74 1020.86 1021.09 1021.43 1021.65 1021.73 1021.77 1021.71 1021.63 1021.60 1021.78 1021.72 1021.87 1022.00 1022.00 1021.92 1021.97 1022.12 1022.08 1021.99
Wind_Speed
10 9 2 5 6 6 2 3 5 3 4 1 3 12 10 3 3 4 3 11 15 12 9 8 10 10 13 8 5 4 7 10 12 12 11 11 12 11 11 10 9 9 9 11 11 11 8 11 10
7 5 5 2 4 4 2 3 9 4 4 4 8 6 6 4 4 6 3 13 15 12 9 7 10 9 13 9 7 5 4 11 10 10 11 11 10 10 11 7 8 9 9 10 9 9 10 12 11
5 5 4 4 3 5 4 3 7 3 4 3 3 5 4 3 5 5 4 13 13 10 10 8 8 6 10 7 6 6 5 7 6 9 9 9 10 10 8 7 6 6 6 7 8 8 11 10 9
4 5 5 6 6 5 8 7 7 5 2 4 6 7 5 2 3 8 7 13 12 9 9 10 9 8 8 6 6 5 4 6 5 10 10 9 10 11 10 7 7 4 4 4 6 6 7 6 6
4 3 4 4 6 3 4 6 8 5 4 5 6 2 5 3 9 8 7 11 13 8 9 7 9 8 7 6 5 4 3 3 3 8 7 8 9 10 9 10 8 5 4 3 4 3 4 5 4
5 3 4 3 5 4 3 4 5 6 4 6 7 5 2 5 7 7 6 11 12 10 10 9 9 8 7 6 6 4 4 4 3 5 3 8 9 9 8 9 9 8 5 4 3 2 2 2 2
4 4 1 5 6 4 2 4 5 5 4 5 5 6 3 5 7 8 7 10 8 10 10 7 8 8 8 7 7 6 5 5 4 3 2 4 7 9 8 7 8 9 8 7 5 4 3 3 3
3 4 5 3 6 4 3 2 3 7 2 3 5 6 5 5 7 7 7 8 8 6 8 7 7 7 7 7 9 8 7 6 6 5 4 3 7 7 7 7 7 8 8 8 8 7 6 5 5
4 4 4 6 5 4 3 3 3 1 6 5 3 4 6 9 7 5 5 5 5 3 4 6 7 8 7 7 8 11 11 9 8 6 7 5 4 5 6 6 8 9 9 10 10 9 8 7 7
5 4 2 3 2 5 4 4 3 4 5 4 6 6 6 8 6 7 6 6 5 5 5 6 6 8 8 8 8 7 7 5 5 6 7 5 6 6 7 8 11 10 10 10 10 11 10 7 4
3 4 2 4 4 4 3 3 2 3 1 5 9 10 8 6 7 8 8 7 9 8 5 8 7 6 6 5 4 3 3 4 5 7 7 6 6 5 5 3 4 4 7 4 5 5 4 6 4
1 3 3 3 3 3 2 2 2 3 4 6 8 10 9 9 9 9 9 8 8 8 11 11 9 7 7 4 4 5 5 4 4 6 7 5 4 5 4 4 5 5 4 5 5 4 5 7 7
4 2 3 5 5 1 2 0 1 1 5 8 10 8 8 8 9 7 8 8 8 7 9 11 11 10 9 7 4 4 6 5 6 6 7 6 5 5 4 4 4 4 4 5 5 5 5 7 8
1 2 3 5 5 2 2 3 2 5 6 6 6 9 8 8 9 6 6 6 7 8 8 9 12 13 10 9 8 6 4 5 6 6 7 8 6 5 5 5 5 5 5 5 5 5 6 6 6
2 1 5 1 5 3 4 5 8 8 5 8 8 9 9 8 9 9 8 7 8 7 9 9 10 13 11 12 9 6 7 5 5 7 8 9 8 7 6 5 5 5 5 6 5 5 4 4 4
5 3 2 5 6 5 9 7 10 10 8 10 10 8 8 8 9 8 8 8 8 5 3 4 3 3 6 7 8 7 6 6 6 4 6 8 8 8 8 5 5 5 4 4 4 4 4 4 4
2 3 5 6 9 7 8 5 9 5 5 10 10 9 8 7 5 6 7 5 5 6 5 6 7 6 5 4 5 7 9 7 6 5 4 7 7 8 8 7 6 6 6 6 6 5 4 4 4
6 7 5 6 3 7 8 9 7 7 4 7 7 7 7 6 8 7 4 7 7 7 7 7 6 7 7 5 4 3 4 6 5 5 6 7 6 4 4 5 5 6 4 5 4 6 4 4 5
3 3 4 3 6 8 8 7 9 8 5 7 8 8 9 9 7 3 7 6 6 7 8 8 8 7 6 3 3 4 4 4 4 6 9 10 7 7 4 4 6 5 7 8 5 4 4 4 3
6 6 4 6 4 1 6 10 9 7 7 8 9 11 10 5 5 7 7 7 7 5 6 7 7 7 5 4 3 4 3 3 3 4 8 8 9 8 7 4 4 5 6 4 5 5 4 3 4
6 9 3 5 7 4 4 9 8 9 15 16 17 13 9 12 9 7 7 6 5 7 7 7 7 7 5 7 5 3 1 1 1 2 2 1 1 1 3 5 5 4 4 5 5 4 7 6 4
9 6 6 4 3 5 2 10 7 8 10 7 15 16 11 9 5 7 7 6 5 5 6 7 6 6 6 7 5 3 0 2 4 6 7 8 11 10 9 9 8 3 2 4 4 4 5 4 5
6 6 8 9 6 3 6 6 6 6 7 9 11 11 12 7 11 9 8 7 6 6 5 4 5 6 6 6 6 4 6 6 5 6 10 9 9 11 10 9 9 8 6 7 8 6 4 2 3
7 5 5 5 3 10 8 8 7 10 13 7 6 6 8 9 9 8 7 7 6 6 6 5 7 6 7 7 7 9 9 7 6 7 6 5 6 6 9 7 7 8 7 7 7 8 9 7 9
7 7 0 3 5 9 4 10 18 6 8 6 9 10 9 9 9 8 8 6 6 6 4 5 6 6 7 8 10 9 9 9 8 6 5 6 5 6 8 8 9 7 8 7 8 8 9 8 7
8 13 7 8 5 4 7 11 9 13 14 7 7 9 8 8 8 8 8 7 7 6 5 5 6 6 6 7 8 8 9 6 6 8 6 6 6 5 6 7 7 8 8 8 8 7 7 6 7
7 14 6 3 3 2 5 8 9 5 5 5 7 8 10 9 9 10 8 7 7 6 6 6 6 5 6 6 6 7 7 8 6 7 6 5 4 5 6 6 7 8 8 8 8 7 7 7 7
7 6 6 5 4 4 8 7 10 2 6 5 7 10 8 8 8 8 7 8 6 6 6 7 6 6 5 6 5 5 6 6 6 6 6 6 5 5 6 6 8 9 9 8 7 6 7 7 5
7 8 6 4 7 6 3 8 8 14 10 10 11 7 9 10 10 9 8 7 7 6 6 6 6 6 5 5 5 6 6 6 6 5 5 5 5 5 6 7 9 9 9 9 7 8 8 8 7
19 13 14 6 7 6 6 12 4 7 3 7 9 10 9 9 9 9 9 9 8 8 7 7 6 6 5 6 5 5 6 6 6 5 5 5 5 6 6 8 9 9 8 7 8 8 7 8 9
Wind_Direction
306 318 286 44 57 70 57 40 99 57 52 66 24 93 114 77 51 143 216 117 121 132 135 136 136 141 125 122 114 95 131 122 119 120 113 110 107 103 99 86 85 89 86 80 62 51 78 102 97
309 325 37 74 84 78 27 134 80 87 139 123 88 107 63 78 80 122 88 135 131 135 138 139 146 148 126 129 129 123 117 136 130 129 126 123 121 116 101 112 100 104 127 94 75 56 50 124 118
297 162 73 97 72 132 133 131 127 120 71 92 88 72 75 23 110 130 159 137 130 139 134 138 145 120 115 130 142 138 134 128 128 146 134 135 136 123 121 112 105 92 105 84 77 56 50 127 115
323 4 14 78 72 7 122 152 146 130 46 68 112 77 62 320 95 146 144 130 114 117 124 135 135 126 128 138 150 161 153 136 140 163 155 151 151 146 146 137 126 110 100 119 101 68 64 76 122
35 66 53 91 95 80 99 148 147 146 133 79 114 79 90 63 109 122 139 128 118 122 125 129 134 131 138 149 162 166 184 153 219 161 164 166 163 165 159 145 151 145 126 111 70 79 78 79 104
9 74 59 119 116 99 46 52 111 104 103 91 74 94 78 125 115 151 151 135 135 139 138 144 144 147 155 162 168 177 190 153 121 112 158 188 181 176 176 170 165 163 174 163 157 141 124 105 92
70 57 237 111 128 76 116 35 42 97 102 42 163 88 143 110 144 153 148 131 136 145 143 152 157 165 169 175 180 186 201 193 193 174 159 221 196 191 192 195 189 186 189 193 191 184 190 208 208
73 85 332 115 159 163 147 73 107 94 58 122 123 143 184 192 150 147 134 117 132 146 148 164 169 171 177 181 187 192 198 204 209 221 197 215 200 215 203 208 210 202 202 200 207 205 213 223 230
24 51 359 349 130 142 118 91 15 98 100 55 56 110 151 147 136 122 115 99 113 134 162 182 173 184 187 195 196 189 192 198 203 215 199 195 195 214 216 214 218 232 210 206 208 206 213 223 237
71 72 43 359 56 135 112 89 130 80 119 69 80 67 121 136 145 156 167 172 176 185 221 217 212 195 191 199 192 193 190 196 196 201 196 191 199 202 204 210 211 220 220 218 219 212 215 220 231
326 156 349 350 47 43 95 88 94 54 106 193 167 162 165 164 170 175 200 194 198 201 195 208 218 224 219 206 170 183 193 192 205 206 205 198 204 205 206 205 214 205 216 220 230 233 213 211 221
333 330 355 178 27 21 56 113 49 104 177 131 158 164 162 175 187 194 208 212 196 195 200 202 206 209 222 234 186 190 194 196 201 209 209 200 205 212 199 190 199 192 205 211 219 218 216 216 220
190 254 11 139 103 4 360 90 171 329 179 134 147 156 169 188 198 206 201 195 205 201 200 201 194 203 211 204 207 208 206 197 200 205 206 199 200 205 197 201 193 198 201 207 218 219 222 221 225
273 112 303 234 168 189 168 261 69 260 196 208 182 191 201 205 197 181 192 209 207 206 205 197 198 202 201 206 206 209 203 211 207 202 205 200 199 197 202 207 208 209 199 208 207 206 213 222 219
105 49 352 245 190 223 156 284 225 229 269 233 211 215 219 216 205 185 196 217 218 223 218 217 200 201 197 206 210 208 211 203 210 219 205 202 200 199 193 204 214 215 212 215 214 228 228 234 234
134 79 125 266 190 230 138 245 250 244 235 235 229 227 233 243 205 195 204 219 226 243 270 293 329 224 211 203 202 208 211 215 217 211 223 211 201 192 203 203 216 219 214 209 213 217 233 233 227
295 181 201 278 216 197 180 234 233 242 234 247 233 227 231 255 245 233 230 235 77 86 59 37 21 13 330 270 212 210 212 213 217 206 208 204 216 212 210 210 210 210 216 215 217 220 209 232 236
198 209 230 210 265 204 227 238 254 265 269 253 244 237 247 230 237 236 90 91 75 56 46 34 17 7 344 331 292 234 209 210 211 214 213 219 217 223 242 226 209 206 233 216 210 223 205 225 232
196 204 211 279 290 221 224 231 238 248 276 263 259 257 241 251 255 77 87 73 66 42 38 25 10 354 351 334 325 280 220 195 205 208 212 209 206 226 234 246 235 203 220 235 217 198 214 243 219
234 257 263 286 260 234 280 267 257 248 248 237 228 234 236 246 227 130 104 72 59 52 33 22 12 2 357 347 297 253 250 216 177 186 200 192 188 197 226 219 239 227 224 223 214 201 220 223 193
214 222 203 234 311 265 322 275 252 246 244 249 241 231 215 215 212 155 115 94 68 49 29 25 23 4 350 332 310 303 266 350 120 164 146 144 190 257 253 251 230 224 214 215 215 211 220 240 221
226 184 212 249 304 255 94 282 266 283 270 259 240 231 221 213 135 134 129 102 96 66 44 37 29 5 350 335 338 327 191 128 33 66 70 64 59 49 35 37 23 350 270 234 232 219 232 234 243
227 173 219 214 211 261 255 294 281 254 297 255 236 228 226 192 142 140 131 122 92 73 59 51 50 20 355 1 17 20 62 73 63 70 72 60 53 48 44 30 35 35 35 34 30 10 336 315 271
153 93 48 42 81 249 219 215 219 233 241 253 225 210 154 130 124 115 111 103 87 65 54 51 52 24 16 22 31 51 55 64 65 57 72 67 64 50 41 40 51 45 47 32 34 42 35 37 51
150 121 341 209 212 238 212 206 247 260 261 235 219 177 160 143 136 139 132 118 106 87 69 78 62 41 29 34 37 44 60 63 67 70 67 69 59 46 33 44 48 40 35 39 51 52 49 46 54
182 178 166 196 212 238 188 235 248 222 243 207 179 160 146 149 149 145 148 141 135 114 99 91 78 60 50 52 43 41 51 66 63 65 71 63 66 53 36 50 54 45 42 50 56 53 58 53 56
200 207 175 61 10 61 236 293 302 212 220 155 160 157 176 169 162 156 150 143 136 138 131 125 109 83 64 64 58 51 52 60 63 54 59 57 42 64 44 50 56 56 51 51 60 52 53 53 56
176 143 182 204 210 250 247 244 237 358 242 215 199 205 186 172 163 157 145 147 159 150 139 125 122 114 106 89 77 67 61 61 60 57 55 52 42 45 54 55 63 54 49 46 64 65 53 61 57
174 187 210 179 199 204 249 250 219 227 237 215 226 206 187 183 173 164 160 163 159 156 153 146 139 129 113 99 97 91 80 68 63 64 51 53 50 44 59 65 74 63 53 47 50 55 61 66 64
210 192 187 193 220 236 268 260 166 141 120 194 231 199 197 180 165 168 169 167 169 172 170 161 147 134 132 123 102 90 90 84 76 66 57 50 57 49 56 72 71 67 65 57 60 65 61 62 60